Location: Newark
(44.3894°N, 2.3378°E)
Time: 06:25:03
(UTC+00:00)

Tiangong 2 - Visible Passes

Search period start: 19 July 2019 00:00
Search period end: 29 July 2019 00:00
Orbit: 185 x 377 km, 42.8° (Epoch: 18 July)

Date Brightness Start Highest point End Pass type
(mag) Time Alt. Az. Time Alt. Az. Time Alt. Az.
19 Jul 1.6 20:06:07 10° W 20:09:08 44° SSW 20:12:07 10° ESE visible
19 Jul 3.5 21:41:27 10° WSW 21:42:18 13° SW 21:42:18 13° SW visible
20 Jul 2.1 20:07:50 10° W 20:10:42 32° SSW 20:13:32 10° SE visible
21 Jul 2.7 20:09:38 10° W 20:12:11 23° SSW 20:14:42 10° SSE visible
22 Jul 3.3 20:11:37 10° WSW 20:13:33 15° SSW 20:15:28 10° S visible
